Location: Brasstown
(34.8693°N, 83.8104°W)
Time: 02:09:05
(UTC-04:00)

N. Korean satellite - Visible Passes

Search period start: 29 October 2020 00:00
Search period end: 07 November 2020 23:00
Orbit: 452 x 505 km, 97.2° (Epoch: 28 October)

Date Brightness Start Highest point End Pass type
(mag) Time Alt. Az. Time Alt. Az. Time Alt. Az.
29 Oct 7.0 06:53:33 10° NNE 06:56:55 59° E 07:00:15 10° S visible
30 Oct 9.0 06:27:55 10° NE 06:30:43 24° E 06:33:32 10° SSE visible
31 Oct 10.2 06:03:49 10° E 06:04:27 10° E 06:05:04 10° ESE visible
01 Nov 6.3 06:08:24 10° N 06:11:48 78° WNW 06:15:12 10° SSW visible
01 Nov 9.8 18:14:25 10° SW 18:16:47 17° W 18:19:09 10° NW visible
02 Nov 8.0 05:42:25 10° NNE 05:45:39 39° E 05:48:52 10° S visible
03 Nov 9.6 05:17:06 10° NE 05:19:24 17° E 05:21:42 10° SE visible
04 Nov 6.7 06:23:21 10° N 06:26:37 44° WNW 06:29:53 10° SSW visible
04 Nov 10.5 18:31:02 10° WSW 18:31:45 10° W 18:32:25 10° W visible
05 Nov 6.8 05:57:05 10° NNE 06:00:30 69° ESE 06:03:54 10° S visible
05 Nov 9.4 18:02:35 10° SSW 18:05:26 23° W 18:08:17 10° NW visible
06 Nov 8.7 05:31:19 10° NE 05:34:17 27° E 05:37:16 10° SSE visible
07 Nov 10.0 05:06:34 10° ENE 05:08:00 12° E 05:09:25 10° ESE visible
